Regional Weather Roundup
Issued by NWS Austin/San Antonio, TX

Current Version | Previous Version | Text Only | Print | Product List | Glossary On
Versions: 1 2 3 4 5 6 7 8 9 10 11 12 13 14 15 16 17 18 19 20 21 22 23 24 25 26 27 28 29 30 31 32 33 34 35 36 37 38 39 40 41 42 43 44 45 46 47 48 49 50
000
ASUS44 KEWX 041101
RWREWX
SOUTH TEXAS REGIONAL WEATHER ROUNDUP
NATIONAL WEATHER SERVICE AUSTIN/SAN ANTONIO TX
600 AM CDT TUE OCT 04 2022

NOTE: "FAIR" INDICATED FEW OR NO CLOUDS BELOW 12,000 FEET WITH NO
SIGNIFICANT WEATHER AND/OR OBSTRUCTIONS TO VISIBILITY.

* - THESE STATIONS ARE NOT NWS OR FAA STATIONS...AND ARE NOT SUBJECT
    TO NWS AND FAA QUALITY CONTROL.

TXZ171-172-183>190-041200-
TEXAS HILL COUNTRY AND EDWARDS PLATEAU

CITY           SKY/WX    TMP DP  RH WIND       PRES   REMARKS
JUNCTION       CLEAR     51  43  74 NW5       30.13R
*LLANO         CLOUDY    52  41  66 CALM      30.10S
BURNET         CLEAR     57  42  57 NE3       30.12S
*HORSESHOE BAY CLEAR     53  44  71 CALM      30.11R
*LAGO VISTA      N/A    N/A N/A N/A N5        30.10S
*KERRVILLE     CLOUDY    55  46  71 CALM      30.11R
*FREDERICKSBRG CLEAR     53  42  66 CALM      30.11S
*ROCKSPRINGS   CLEAR     61  48  63 SE6       30.16R
*BOERNE        MOCLDY    59  46  63 CALM      30.09S
HONDO          CLOUDY    64  47  53 MISG      30.08R
*UVALDE        CLOUDY    62  49  61 NE5       30.09S
DEL RIO        MOCLDY    65  52  62 NE7       30.05S
*LAUGHLIN AFB  MOCLDY    60  52  75 NE5       30.04R
*SPOFFORD      MOCLDY    61  50  68 W5        30.05R
CARRIZO SPRGS  CLOUDY    64  52  63 CALM      30.05R
*FAITH RANCH   CLEAR     70  55  60 S5        30.07S
$$

TXZ173-191>194-202-209-217>225-228-041200-
CENTRAL AND SOUTH CENTRAL TEXAS

CITY           SKY/WX    TMP DP  RH WIND       PRES   REMARKS
GEORGETOWN     MOCLDY    56  45  66 CALM      30.11R
*TAYLOR        MOCLDY    55  46  72 NW3       30.08S
AUSTIN/BERGSTM MOCLDY    59  52  77 CALM      30.07R
AUSTIN/MABRY   MOCLDY    64  50  60 CALM      30.09R
*PFLUGERVILLE  MOCLDY    64  45  48 N6        30.07S
SAN MARCOS     MOCLDY   N/A N/A N/A N3          N/A
NEW BRAUNFELS  MOCLDY    65  47  52 N5        30.05S
*RANDOLPH AFB  CLOUDY    64  46  52 N5        30.04S
*SEGUIN        CLOUDY    62  49  62 N3        30.04S
SAN ANTONIO    MOCLDY    66  47  50 NW3       30.07S
STINSON FIELD  MOCLDY    66  52  60 CALM      30.04F
*KELLY FIELD   CLOUDY    64  49  57 NW3       30.04S
*PLEASANTON    MOCLDY    65  54  68 CALM      30.06S
*KENEDY        MOCLDY    63  55  76 CALM      30.07R
*LA GRANGE     NOT AVBL
*GIDDINGS      CLOUDY    67  49  52 E5        30.08R
*GONZALES      CLOUDY    64  48  56 CALM      30.05F
$$

TXZ163>164-176>182-195>201-210>213-226-227-235-041200-
SOUTHEAST TEXAS

CITY           SKY/WX    TMP DP  RH WIND       PRES   REMARKS
COLLEGE STN    CLOUDY    68  50  52 E6        30.07S
*BRYAN         CLOUDY    62  49  63 NE5       30.10S
*CALDWELL      CLOUDY    61  51  67 CALM      30.08S
*CROCKETT      CLOUDY    54  50  87 CALM      30.08F
*BRENHAM       CLOUDY    65  53  63 CALM      30.07
HUNTSVILLE     MOCLDY    59  51  75 CALM      30.08S
CONROE         MOCLDY    58  53  84 CALM      30.08S
HOUSTON BUSH   PTCLDY    62  53  72 CALM      30.06S
HOUSTON HOBBY  PTCLDY    68  57  68 E3        30.05R
*HOUSTON SW AP NOT AVBL
PEARLAND       PTCLDY    63  59  87 CALM      30.07R
HOUSTON HOOKS  PTCLDY    63  53  70 NE3       30.07R
ELLINGTON FLD  CLEAR     64  59  82 NE5       30.05R
SUGAR LAND     PTCLDY    59  55  87 SW3       30.06R
*HOUSTON EXEC  PTCLDY    61  57  88 CALM      30.08R
*CLEVELAND MUN NOT AVBL
*WHARTON       PTCLDY    62  56  83 CALM      30.06S
*COLUMBUS      FAIR      60  53  78 CALM      30.08R
*EAGLE LAKE    CLOUDY    61  53  76 CALM      30.05S
$$

TXZ214>216-236>238-041200-
THE UPPER TEXAS COAST

CITY           SKY/WX    TMP DP  RH WIND       PRES   REMARKS
*ORANGE        PTCLDY    58  56  91 CALM      30.08S
PORT ARTHUR    PTCLDY    62  56  80 NE5       30.05S
GALVESTON      PTCLDY    71  65  81 N3        30.05R
ANGLETON       PTCLDY    60  57  89 CALM      30.06R
*BAY CITY      PTCLDY    61  58  91 NE3       30.06S
PALACIOS       PTCLDY    64  61  90 NE3       30.04S
$$

TXZ229>234-239>247-041200-
TEXAS COASTAL BEND AND RIO GRANDE PLAINS

CITY           SKY/WX    TMP DP  RH WIND       PRES   REMARKS
VICTORIA       PTCLDY    65  60  84 CALM      30.04S
*BEEVILLE      PTCLDY    66  59  78 N5        30.03S
ROCKPORT       CLOUDY    72  66  81 NE6       30.02F
*PORT ARANSAS  PTCLDY   N/A N/A N/A N7        30.03F
*PORT LAVACA   PTCLDY    68  59  73 NW3       30.04
*INGLESIDE     NOT AVBL
CORPUS CHRISTI CLOUDY    73  63  70 W3        30.02S
CORPUS NAS     NOT AVBL
*ROBSTOWN      CLOUDY    69  62  77 MISG      30.03R
ALICE          CLOUDY    68  65  90 NW6       30.03S
KINGSVILLE NAS NOT AVBL
COTULLA        CLOUDY    70  58  65 N3        30.04S
LAREDO         CLOUDY    71  62  73 S3        30.04S
$$

TXZ248>255-041200-
DEEP SOUTH TEXAS

CITY           SKY/WX    TMP DP  RH WIND       PRES   REMARKS
BROWNSVILLE    CLOUDY    73  67  81 CALM      30.01R
PORT ISABEL    CLOUDY    71  67  87 W6        30.01S
HARLINGEN      CLOUDY    70  67  90 NW5       30.01R
*HEBBRONVILLE  CLOUDY    66  63  89 CALM      30.05S
MCALLEN        CLOUDY    73  63  70 CALM      30.03S
*WESLACO       CLOUDY    70  65  84 W3        30.02S
FALFURRIAS     CLOUDY    67  66  97 CALM      30.01F FOG
EDINBURG       CLOUDY    69  66  89 W3        30.04R
*ZAPATA        CLOUDY    72  66  82 CALM      30.05S
$$

TXZ213>215-236>238-242>244-246-247-251-254-255-041200-
CMAN STATIONS

STATION/POSITION TIME  TEMP    WIND        PRES    WAVE
                       AIR SEA DIR/SP/G            HT/PER
                 (UTC) (F)     (DEG/KT/KT) (MB)    (FT/S)
SEA RIM ST PARK  1000   68      40/  8/  9 1017.6
NORTH JETTY/GLS  1030   78 78  110/ 12/ 15 1015.9
EAGLE POINT      1030   73 76   60/  9/ 10 1016.8
MORGANS POINT    1030   68 78   30/  5/  6 1017.0
MISSION/ARANSAS  1000   73     340/  7     1017.0
PORT O`CONNOR    1024   74 85  280/  4/  5 1016.6
PORT ARANSAS     1000   76     340/  5/  6   N/A
BAFFIN BAY       1024   74 80  320/  5/  6 1016.7
PORT ISABEL      1024   74 83  250/  3/  4 1015.4
$$



USA.gov is the U.S. government's official web portal to all federal, state and local government web resources and services.